| time (UTC) | temp F | wind direction | speed MPH | gust MPH | rain 1hr in | rain 24hr in | rain mn in | humidity % | barometer mb |
| 20260902153205 | 90 | 54 | 3.0 | 6.0 | 0.00 | 0.00 | 0.00 | 70 | 1017.6 |
| 20260902152647 | 90 | 52 | 3.0 | 6.0 | 0.00 | 0.00 | 0.00 | 71 | 1017.3 |
| 20260902152148 | 89 | 35 | 2.0 | 5.0 | 0.00 | 0.00 | 0.00 | 73 | 1017.3 |
| 20260902151647 | 88 | 166 | 3.0 | 6.0 | 0.00 | 0.00 | 0.00 | 76 | 1017.3 |
| 20260902151147 | 88 | 35 | 5.0 | 7.0 | 0.00 | 0.00 | 0.00 | 74 | 1017.3 |
| 20260902150647 | 88 | 33 | 5.0 | 7.0 | 0.00 | 0.00 | 0.00 | 75 | 1017.3 |
| 20260902150147 | 88 | 56 | 3.0 | 6.0 | 0.00 | 0.00 | 0.00 | 76 | 1017.3 |
| 20260902145647 | 87 | 42 | 1.0 | 7.0 | 0.00 | 0.00 | 0.00 | 78 | 1017.3 |
| 20260902145146 | 88 | 360 | 2.0 | 7.0 | 0.00 | 0.00 | 0.00 | 76 | 1017.3 |
| 20260902144646 | 88 | 46 | 3.0 | 6.0 | 0.00 | 0.00 | 0.00 | 78 | 1017.3 |
| 20260902144146 | 88 | 26 | 3.0 | 7.0 | 0.00 | 0.00 | 0.00 | 77 | 1017.3 |
| 20260902143648 | 88 | 44 | 2.0 | 3.0 | 0.00 | 0.00 | 0.00 | 77 | 1017.3 |
| 20260902143146 | 87 | 85 | 2.0 | 5.0 | 0.00 | 0.00 | 0.00 | 79 | 1017.3 |
| 20260902142647 | 87 | 357 | 2.0 | 5.0 | 0.00 | 0.00 | 0.00 | 78 | 1017.3 |
| 20260902142147 | 87 | 92 | 4.0 | 6.0 | 0.00 | 0.00 | 0.00 | 80 | 1017.3 |
| 20260902141647 | 87 | 66 | 5.0 | 7.0 | 0.00 | 0.00 | 0.00 | 80 | 1017.6 |
| 20260902141147 | 87 | 49 | 3.0 | 6.0 | 0.00 | 0.00 | 0.00 | 80 | 1017.3 |
| 20260902140649 | 86 | 29 | 4.0 | 8.0 | 0.00 | 0.00 | 0.00 | 81 | 1017.3 |
| 20260902140147 | 86 | 65 | 6.0 | 6.0 | 0.00 | 0.00 | 0.00 | 82 | 1017.3 |
| 20260902135647 | 87 | 66 | 5.0 | 6.0 | 0.00 | 0.00 | 0.00 | 81 | 1017.3 |
| 20260902135146 | 87 | 341 | 0.0 | 3.0 | 0.00 | 0.00 | 0.00 | 81 | 1017.3 |
| 20260902134647 | 86 | 58 | 2.0 | 4.0 | 0.00 | 0.00 | 0.00 | 83 | 1017.3 |
| 20260902134148 | 86 | 69 | 4.0 | 5.0 | 0.00 | 0.00 | 0.00 | 83 | 1017.3 |
| 20260902133646 | 86 | 84 | 0.0 | 4.0 | 0.00 | 0.00 | 0.00 | 83 | 1016.9 |
| 20260902133147 | 86 | 5 | 1.0 | 2.0 | 0.00 | 0.00 | 0.00 | 83 | 1016.9 |
| 20260902132646 | 85 | 67 | 2.0 | 3.0 | 0.00 | 0.00 | 0.00 | 86 | 1017.3 |
| 20260902132146 | 84 | 62 | 3.0 | 5.0 | 0.00 | 0.00 | 0.00 | 87 | 1016.9 |
| 20260902131647 | 85 | 32 | 3.0 | 3.0 | 0.00 | 0.00 | 0.00 | 86 | 1016.9 |
| 20260902131147 | 84 | 13 | 0.0 | 3.0 | 0.00 | 0.00 | 0.00 | 87 | 1017.3 |
| 20260902130646 | 84 | 46 | 1.0 | 3.0 | 0.00 | 0.00 | 0.00 | 88 | 1016.9 |
| 20260902130150 | 83 | 279 | 0.0 | 4.0 | 0.00 | 0.00 | 0.00 | 90 | 1017.3 |
| 20260902125647 | 82 | 348 | 2.0 | 5.0 | 0.00 | 0.00 | 0.00 | 91 | 1016.9 |
| 20260902125147 | 82 | 2 | 2.0 | 4.0 | 0.00 | 0.00 | 0.00 | 91 | 1016.6 |
| 20260902124647 | 82 | 38 | 4.0 | 5.0 | 0.00 | 0.00 | 0.00 | 91 | 1016.9 |
| 20260902124147 | 82 | 16 | 1.0 | 4.0 | 0.00 | 0.00 | 0.00 | 91 | 1016.6 |
| 20260902123647 | 83 | 335 | 3.0 | 4.0 | 0.00 | 0.00 | 0.00 | 90 | 1016.9 |
| 20260902123146 | 84 | 166 | 0.0 | 3.0 | 0.00 | 0.00 | 0.00 | 89 | 1016.6 |
| 20260902122650 | 83 | 37 | 1.0 | 5.0 | 0.00 | 0.00 | 0.00 | 90 | 1016.3 |
| 20260902122147 | 83 | 31 | 3.0 | 5.0 | 0.00 | 0.00 | 0.00 | 91 | 1016.6 |
| 20260902121646 | 82 | 19 | 4.0 | 5.0 | 0.00 | 0.00 | 0.00 | 91 | 1016.6 |
| 20260902121146 | 82 | 359 | 3.0 | 5.0 | 0.00 | 0.00 | 0.00 | 92 | 1016.6 |
| 20260902120213 | 81 | 61 | 3.0 | 6.0 | 0.00 | 0.00 | 0.00 | 94 | 1016.6 |
| 20260902115646 | 81 | 40 | 3.0 | 5.0 | 0.00 | 0.00 | 0.00 | 95 | 1016.3 |
| 20260902115147 | 80 | 7 | 2.0 | 4.0 | 0.00 | 0.00 | 0.00 | 95 | 1016.3 |
| 20260902114646 | 80 | 163 | 2.0 | 3.0 | 0.00 | 0.00 | 0.00 | 96 | 1016.3 |
| 20260902114146 | 80 | 38 | 2.0 | 3.0 | 0.00 | 0.00 | 0.00 | 97 | 1016.3 |
| 20260902113646 | 79 | 331 | 1.0 | 3.0 | 0.00 | 0.00 | 0.00 | 97 | 1015.9 |
| 20260902113147 | 79 | 209 | 1.0 | 2.0 | 0.00 | 0.00 | 0.00 | 96 | 1016.3 |
| 20260902112647 | 80 | 227 | 1.0 | 2.0 | 0.00 | 0.00 | 0.00 | 96 | 1015.9 |
| 20260902112147 | 80 | 195 | 0.0 | 1.0 | 0.00 | 0.00 | 0.00 | 95 | 1015.9 |
| 20260902111647 | 80 | 135 | 0.0 | 1.0 | 0.00 | 0.00 | 0.00 | 95 | 1015.9 |
| 20260902111146 | 80 | 117 | 0.0 | 2.0 | 0.00 | 0.00 | 0.00 | 96 | 1015.9 |
| 20260902110647 | 79 | 44 | 0.0 | 2.0 | 0.00 | 0.00 | 0.00 | 96 | 1015.9 |
| 20260902110147 | 79 | 190 | 0.0 | 0.0 | 0.00 | 0.00 | 0.00 | 96 | 1015.9 |
| 20260902105647 | 80 | 201 | 0.0 | 1.0 | 0.00 | 0.00 | 0.00 | 96 | 1015.9 |
| 20260902105150 | 80 | 224 | 0.0 | 1.0 | 0.00 | 0.00 | 0.00 | 95 | 1015.9 |
| 20260902104646 | 80 | 157 | 0.0 | 1.0 | 0.00 | 0.00 | 0.00 | 95 | 1015.6 |
| 20260902104147 | 80 | 117 | 0.0 | 0.0 | 0.00 | 0.00 | 0.00 | 95 | 1015.6 |
| 20260902103647 | 80 | 23 | 0.0 | 2.0 | 0.00 | 0.00 | 0.00 | 96 | 1015.6 |
| 20260902103146 | 80 | 157 | 0.0 | 1.0 | 0.00 | 0.00 | 0.00 | 95 | 1015.6 |
| 20260902102646 | 80 | 218 | 0.0 | 1.0 | 0.00 | 0.00 | 0.00 | 95 | 1015.6 |
| 20260902102146 | 80 | 142 | 0.0 | 1.0 | 0.00 | 0.00 | 0.00 | 95 | 1015.6 |
| 20260902101646 | 80 | 104 | 0.0 | 1.0 | 0.00 | 0.00 | 0.00 | 95 | 1015.6 |
| 20260902101147 | 80 | 22 | 1.0 | 2.0 | 0.00 | 0.00 | 0.00 | 96 | 1015.6 |
| 20260902100646 | 80 | 135 | 0.0 | 1.0 | 0.00 | 0.00 | 0.00 | 95 | 1015.6 |
| 20260902100147 | 80 | 89 | 0.0 | 1.0 | 0.00 | 0.00 | 0.00 | 95 | 1015.6 |
| 20260902095646 | 79 | 217 | 0.0 | 1.0 | 0.00 | 0.00 | 0.00 | 95 | 1015.6 |
| 20260902095147 | 80 | 135 | 0.0 | 0.0 | 0.00 | 0.00 | 0.00 | 95 | 1015.6 |
| 20260902094646 | 80 | 135 | 0.0 | 1.0 | 0.00 | 0.00 | 0.00 | 95 | 1015.6 |
| 20260902094147 | 79 | 42 | 1.0 | 2.0 | 0.00 | 0.00 | 0.00 | 95 | 1015.2 |
| 20260902093647 | 79 | 124 | 0.0 | 2.0 | 0.00 | 0.00 | 0.00 | 96 | 1015.2 |
| 20260902093146 | 79 | 242 | 0.0 | 1.0 | 0.00 | 0.00 | 0.00 | 96 | 1015.2 |
| 20260902092647 | 79 | 213 | 2.0 | 2.0 | 0.00 | 0.00 | 0.00 | 96 | 1015.2 |
| 20260902092146 | 79 | 216 | 1.0 | 1.0 | 0.00 | 0.00 | 0.00 | 95 | 1015.2 |
| 20260902091647 | 79 | 224 | 0.0 | 1.0 | 0.00 | 0.00 | 0.00 | 95 | 1015.6 |
| 20260902091146 | 80 | 221 | 1.0 | 1.0 | 0.00 | 0.00 | 0.00 | 95 | 1015.2 |
| 20260902090647 | 80 | 215 | 1.0 | 2.0 | 0.00 | 0.00 | 0.00 | 95 | 1015.2 |
| 20260902090146 | 80 | 201 | 1.0 | 1.0 | 0.00 | 0.00 | 0.00 | 94 | 1015.2 |
| 20260902085646 | 80 | 205 | 0.0 | 2.0 | 0.00 | 0.00 | 0.00 | 93 | 1015.2 |
| 20260902085147 | 80 | 89 | 0.0 | 2.0 | 0.00 | 0.00 | 0.00 | 94 | 1015.2 |
| 20260902084647 | 80 | 75 | 2.0 | 3.0 | 0.00 | 0.00 | 0.00 | 94 | 1015.2 |
| 20260902084147 | 80 | 67 | 1.0 | 2.0 | 0.00 | 0.00 | 0.00 | 94 | 1015.2 |
| 20260902083646 | 80 | 89 | 1.0 | 2.0 | 0.00 | 0.00 | 0.00 | 94 | 1015.2 |
| 20260902083147 | 80 | 72 | 1.0 | 2.0 | 0.00 | 0.00 | 0.00 | 94 | 1014.9 |
| 20260902082646 | 79 | 87 | 0.0 | 2.0 | 0.00 | 0.00 | 0.00 | 95 | 1015.2 |
| 20260902082146 | 79 | 103 | 2.0 | 3.0 | 0.00 | 0.00 | 0.00 | 96 | 1014.9 |
| 20260902081646 | 79 | 199 | 0.0 | 1.0 | 0.00 | 0.00 | 0.00 | 95 | 1015.2 |
| 20260902081147 | 79 | 233 | 2.0 | 2.0 | 0.00 | 0.00 | 0.00 | 96 | 1015.2 |
| 20260902080646 | 79 | 226 | 1.0 | 2.0 | 0.00 | 0.00 | 0.00 | 95 | 1015.2 |
| 20260902080146 | 79 | 214 | 0.0 | 2.0 | 0.00 | 0.00 | 0.00 | 95 | 1015.2 |
| 20260902075646 | 79 | 218 | 0.0 | 1.0 | 0.00 | 0.00 | 0.00 | 95 | 1015.2 |
| 20260902075147 | 79 | 230 | 0.0 | 2.0 | 0.00 | 0.00 | 0.00 | 95 | 1015.2 |
| 20260902074647 | 79 | 236 | 1.0 | 2.0 | 0.00 | 0.00 | 0.00 | 95 | 1014.9 |
| 20260902074146 | 79 | 227 | 1.0 | 1.0 | 0.00 | 0.00 | 0.00 | 94 | 1015.2 |
| 20260902073648 | 80 | 234 | 0.0 | 1.0 | 0.00 | 0.00 | 0.00 | 94 | 1015.2 |
| 20260902073148 | 80 | 226 | 1.0 | 2.0 | 0.00 | 0.00 | 0.00 | 94 | 1015.2 |
| 20260902072646 | 80 | 215 | 1.0 | 2.0 | 0.00 | 0.00 | 0.00 | 94 | 1015.2 |
| 20260902072147 | 80 | 194 | 1.0 | 2.0 | 0.00 | 0.00 | 0.00 | 94 | 1015.2 |
| 20260902071647 | 80 | 176 | 1.0 | 1.0 | 0.00 | 0.00 | 0.00 | 93 | 1015.2 |
| 20260902071146 | 80 | 186 | 1.0 | 2.0 | 0.00 | 0.00 | 0.00 | 93 | 1015.2 |
| 20260902070646 | 80 | 169 | 2.0 | 2.0 | 0.00 | 0.00 | 0.00 | 93 | 1015.6 |
| 20260902070147 | 80 | 186 | 0.0 | 2.0 | 0.00 | 0.00 | 0.00 | 93 | 1015.6 |
| 20260902065646 | 80 | 178 | 1.0 | 2.0 | 0.00 | 0.00 | 0.00 | 93 | 1015.6 |
| 20260902065146 | 80 | 185 | 1.0 | 2.0 | 0.00 | 0.00 | 0.00 | 93 | 1015.2 |
| 20260902064646 | 80 | 177 | 2.0 | 2.0 | 0.00 | 0.00 | 0.00 | 93 | 1015.6 |
| 20260902064146 | 80 | 179 | 1.0 | 2.0 | 0.00 | 0.00 | 0.00 | 92 | 1015.6 |
| 20260902063650 | 80 | 180 | 1.0 | 2.0 | 0.00 | 0.00 | 0.00 | 92 | 1015.6 |
| 20260902063146 | 80 | 176 | 1.0 | 2.0 | 0.00 | 0.00 | 0.00 | 92 | 1015.6 |
| 20260902062646 | 80 | 201 | 1.0 | 2.0 | 0.00 | 0.00 | 0.00 | 92 | 1015.6 |
| 20260902062147 | 80 | 177 | 1.0 | 2.0 | 0.00 | 0.00 | 0.00 | 92 | 1015.6 |
| 20260902061647 | 80 | 163 | 2.0 | 2.0 | 0.00 | 0.00 | 0.00 | 91 | 1015.6 |
| 20260902061146 | 80 | 185 | 1.0 | 2.0 | 0.00 | 0.00 | 0.00 | 91 | 1015.6 |
| 20260902060647 | 80 | 170 | 2.0 | 2.0 | 0.00 | 0.00 | 0.00 | 91 | 1015.6 |
| 20260902060149 | 81 | 170 | 2.0 | 2.0 | 0.00 | 0.00 | 0.00 | 91 | 1015.6 |
| 20260902055649 | 81 | 184 | 1.0 | 3.0 | 0.00 | 0.00 | 0.00 | 90 | 1015.9 |
| 20260902055146 | 81 | 160 | 2.0 | 2.0 | 0.00 | 0.00 | 0.00 | 90 | 1015.6 |
| 20260902054646 | 81 | 166 | 1.0 | 3.0 | 0.00 | 0.00 | 0.00 | 89 | 1015.6 |
| 20260902054147 | 81 | 152 | 2.0 | 3.0 | 0.00 | 0.00 | 0.00 | 89 | 1015.6 |
| 20260902053646 | 81 | 140 | 3.0 | 3.0 | 0.00 | 0.00 | 0.00 | 90 | 1015.9 |
| 20260902053147 | 81 | 66 | 1.0 | 2.0 | 0.00 | 0.00 | 0.00 | 89 | 1015.6 |
| 20260902052647 | 81 | 166 | 0.0 | 2.0 | 0.00 | 0.00 | 0.00 | 89 | 1015.9 |
| 20260902052147 | 81 | 130 | 1.0 | 2.0 | 0.00 | 0.00 | 0.00 | 89 | 1015.9 |
| 20260902051647 | 81 | 72 | 1.0 | 2.0 | 0.00 | 0.00 | 0.00 | 90 | 1015.9 |
| 20260902051147 | 81 | 77 | 0.0 | 2.0 | 0.00 | 0.00 | 0.00 | 90 | 1015.9 |
| 20260902050648 | 81 | 15 | 0.0 | 1.0 | 0.00 | 0.00 | 0.00 | 90 | 1015.6 |
| 20260902050146 | 81 | 67 | 0.0 | 1.0 | 0.00 | 0.00 | 0.00 | 90 | 1015.9 |
| 20260902045647 | 81 | 120 | 0.0 | 2.0 | 0.00 | 0.00 | 0.29 | 90 | 1015.6 |
| 20260902045146 | 81 | 40 | 0.0 | 2.0 | 0.00 | 0.00 | 0.29 | 89 | 1015.6 |
| 20260902044647 | 81 | 93 | 2.0 | 3.0 | 0.00 | 0.00 | 0.29 | 89 | 1015.6 |
| 20260902044146 | 81 | 153 | 3.0 | 4.0 | 0.00 | 0.00 | 0.29 | 89 | 1015.6 |
| 20260902043646 | 82 | 145 | 3.0 | 4.0 | 0.00 | 0.00 | 0.29 | 89 | 1015.9 |
| 20260902043147 | 82 | 140 | 3.0 | 3.0 | 0.00 | 0.00 | 0.29 | 89 | 1015.9 |
| 20260902042646 | 82 | 122 | 1.0 | 4.0 | 0.00 | 0.00 | 0.29 | 89 | 1015.6 |
| 20260902042146 | 82 | 157 | 2.0 | 4.0 | 0.00 | 0.00 | 0.29 | 89 | 1015.9 |
| 20260902041646 | 82 | 153 | 3.0 | 3.0 | 0.00 | 0.00 | 0.29 | 89 | 1015.6 |
| 20260902041147 | 82 | 160 | 3.0 | 4.0 | 0.00 | 0.00 | 0.29 | 89 | 1015.9 |
| 20260902040646 | 82 | 162 | 2.0 | 4.0 | 0.00 | 0.00 | 0.29 | 88 | 1015.9 |
| 20260902040147 | 82 | 139 | 2.0 | 3.0 | 0.00 | 0.00 | 0.29 | 88 | 1015.9 |
| 20260902035648 | 82 | 141 | 3.0 | 3.0 | 0.00 | 0.00 | 0.29 | 89 | 1015.9 |
| 20260902035147 | 82 | 153 | 1.0 | 3.0 | 0.00 | 0.00 | 0.29 | 89 | 1016.3 |
| 20260902034647 | 82 | 171 | 3.0 | 4.0 | 0.00 | 0.00 | 0.29 | 89 | 1016.3 |
| 20260902034146 | 82 | 133 | 3.0 | 3.0 | 0.00 | 0.00 | 0.29 | 89 | 1015.9 |
| 20260902033647 | 82 | 168 | 2.0 | 3.0 | 0.00 | 0.00 | 0.29 | 89 | 1015.9 |
| 20260902033147 | 82 | 149 | 2.0 | 3.0 | 0.00 | 0.00 | 0.29 | 88 | 1016.3 |
| 20260902032649 | 82 | 129 | 0.0 | 3.0 | 0.00 | 0.00 | 0.29 | 88 | 1016.3 |
| 20260902032146 | 82 | 97 | 2.0 | 5.0 | 0.00 | 0.00 | 0.29 | 88 | 1016.3 |
| 20260902031652 | 82 | 169 | 2.0 | 3.0 | 0.00 | 0.00 | 0.29 | 89 | 1016.3 |
| 20260902031147 | 82 | 162 | 0.0 | 2.0 | 0.00 | 0.00 | 0.29 | 88 | 1016.6 |
| 20260902030647 | 82 | 168 | 1.0 | 2.0 | 0.00 | 0.00 | 0.29 | 88 | 1016.6 |
| 20260902030147 | 82 | 98 | 0.0 | 2.0 | 0.00 | 0.00 | 0.29 | 88 | 1016.6 |
| 20260902025646 | 82 | 104 | 0.0 | 4.0 | 0.00 | 0.00 | 0.29 | 89 | 1016.3 |
| 20260902025146 | 82 | 155 | 3.0 | 4.0 | 0.00 | 0.00 | 0.29 | 89 | 1016.6 |
| 20260902024646 | 82 | 166 | 2.0 | 3.0 | 0.00 | 0.00 | 0.29 | 88 | 1016.3 |
| 20260902024146 | 82 | 148 | 0.0 | 2.0 | 0.00 | 0.00 | 0.29 | 87 | 1016.3 |
| 20260902023647 | 82 | 287 | 0.0 | 2.0 | 0.00 | 0.00 | 0.29 | 87 | 1016.3 |
| 20260902023147 | 82 | 146 | 2.0 | 2.0 | 0.00 | 0.00 | 0.29 | 88 | 1016.3 |
| 20260902022647 | 82 | 155 | 3.0 | 4.0 | 0.00 | 0.00 | 0.29 | 88 | 1016.3 |
| 20260902022148 | 82 | 169 | 2.0 | 3.0 | 0.00 | 0.00 | 0.29 | 87 | 1015.9 |
| 20260902021646 | 82 | 171 | 2.0 | 3.0 | 0.00 | 0.00 | 0.29 | 87 | 1015.9 |
| 20260902021146 | 82 | 160 | 0.0 | 3.0 | 0.00 | 0.00 | 0.29 | 86 | 1015.9 |
| 20260902020646 | 82 | 153 | 1.0 | 3.0 | 0.00 | 0.00 | 0.29 | 86 | 1015.6 |
| 20260902020146 | 82 | 141 | 2.0 | 3.0 | 0.00 | 0.00 | 0.29 | 86 | 1015.9 |
| 20260902015646 | 83 | 246 | 0.0 | 2.0 | 0.00 | 0.00 | 0.29 | 85 | 1015.9 |
| 20260902015147 | 83 | 118 | 1.0 | 5.0 | 0.00 | 0.00 | 0.29 | 85 | 1015.6 |
| 20260902014647 | 83 | 64 | 2.0 | 3.0 | 0.00 | 0.00 | 0.29 | 85 | 1015.6 |
| 20260902014146 | 83 | 107 | 0.0 | 2.0 | 0.00 | 0.00 | 0.29 | 85 | 1015.6 |
| 20260902013646 | 82 | 59 | 0.0 | 3.0 | 0.00 | 0.00 | 0.29 | 85 | 1015.6 |
| 20260902013146 | 82 | 169 | 0.0 | 3.0 | 0.00 | 0.00 | 0.29 | 85 | 1015.6 |
| 20260902012647 | 82 | 153 | 3.0 | 3.0 | 0.00 | 0.00 | 0.29 | 85 | 1015.2 |
| 20260902012146 | 82 | 167 | 3.0 | 3.0 | 0.00 | 0.00 | 0.29 | 84 | 1015.2 |
| 20260902011647 | 82 | 147 | 3.0 | 3.0 | 0.00 | 0.00 | 0.29 | 84 | 1015.2 |
| 20260902011147 | 82 | 167 | 2.0 | 3.0 | 0.00 | 0.00 | 0.29 | 84 | 1015.2 |
| 20260902010646 | 82 | 149 | 2.0 | 2.0 | 0.00 | 0.00 | 0.29 | 84 | 1015.2 |
| 20260902010146 | 82 | 136 | 2.0 | 2.0 | 0.00 | 0.00 | 0.29 | 84 | 1015.2 |
| 20260902005646 | 83 | 89 | 0.0 | 1.0 | 0.00 | 0.00 | 0.29 | 83 | 1015.2 |
| 20260902005148 | 83 | 191 | 0.0 | 2.0 | 0.00 | 0.00 | 0.29 | 83 | 1014.9 |
| 20260902004647 | 83 | 172 | 2.0 | 2.0 | 0.00 | 0.00 | 0.29 | 83 | 1015.2 |
| 20260902004146 | 83 | 189 | 2.0 | 2.0 | 0.00 | 0.00 | 0.29 | 83 | 1015.2 |
| 20260902003646 | 83 | 158 | 0.0 | 1.0 | 0.00 | 0.00 | 0.29 | 83 | 1015.2 |
| 20260902003147 | 83 | 159 | 2.0 | 3.0 | 0.00 | 0.00 | 0.29 | 82 | 1014.9 |
| 20260902002646 | 83 | 170 | 2.0 | 3.0 | 0.00 | 0.00 | 0.29 | 82 | 1015.2 |
| 20260902002147 | 83 | 165 | 3.0 | 3.0 | 0.00 | 0.00 | 0.29 | 81 | 1014.9 |
| 20260902001647 | 84 | 141 | 0.0 | 3.0 | 0.00 | 0.00 | 0.29 | 80 | 1015.2 |
| 20260902001147 | 84 | 154 | 0.0 | 2.0 | 0.00 | 0.00 | 0.29 | 80 | 1014.9 |
| 20260902000646 | 83 | 157 | 2.0 | 3.0 | 0.00 | 0.00 | 0.29 | 80 | 1014.9 |
| 20260902000146 | 84 | 179 | 2.0 | 3.0 | 0.00 | 0.00 | 0.29 | 79 | 1014.9 |
| 20260901235647 | 84 | 139 | 2.0 | 4.0 | 0.00 | 0.00 | 0.29 | 79 | 1014.9 |
| 20260901235146 | 84 | 123 | 1.0 | 2.0 | 0.00 | 0.00 | 0.29 | 80 | 1014.9 |
| 20260901234646 | 84 | 217 | 0.0 | 2.0 | 0.00 | 0.00 | 0.29 | 80 | 1014.9 |
| 20260901234146 | 84 | 177 | 2.0 | 2.0 | 0.00 | 0.00 | 0.29 | 79 | 1014.9 |
| 20260901233646 | 83 | 174 | 2.0 | 3.0 | 0.00 | 0.00 | 0.29 | 78 | 1014.9 |
| 20260901233147 | 83 | 173 | 2.0 | 3.0 | 0.00 | 0.00 | 0.29 | 79 | 1014.9 |
| 20260901232646 | 83 | 164 | 4.0 | 5.0 | 0.00 | 0.00 | 0.29 | 79 | 1014.9 |
| 20260901232146 | 83 | 140 | 3.0 | 5.0 | 0.00 | 0.00 | 0.29 | 78 | 1014.6 |
| 20260901231646 | 84 | 153 | 3.0 | 4.0 | 0.00 | 0.00 | 0.29 | 78 | 1014.9 |
| 20260901231147 | 84 | 165 | 3.0 | 4.0 | 0.00 | 0.00 | 0.29 | 80 | 1015.2 |
| 20260901230650 | 84 | 177 | 3.0 | 6.0 | 0.00 | 0.00 | 0.29 | 80 | 1015.2 |
| 20260901230146 | 83 | 165 | 3.0 | 5.0 | 0.00 | 0.00 | 0.29 | 80 | 1014.9 |
| 20260901225646 | 83 | 175 | 4.0 | 9.0 | 0.00 | 0.00 | 0.29 | 80 | 1015.2 |
| 20260901225146 | 83 | 171 | 3.0 | 4.0 | 0.00 | 0.00 | 0.29 | 85 | 1015.2 |
| 20260901224646 | 83 | 164 | 5.0 | 5.0 | 0.00 | 0.00 | 0.29 | 84 | 1015.2 |
| 20260901224150 | 83 | 177 | 5.0 | 7.0 | 0.00 | 0.00 | 0.29 | 85 | 1015.2 |
| 20260901223647 | 83 | 183 | 5.0 | 5.0 | 0.00 | 0.00 | 0.29 | 84 | 1015.2 |
| 20260901223146 | 83 | 184 | 4.0 | 6.0 | 0.00 | 0.00 | 0.29 | 84 | 1015.2 |
| 20260901222646 | 84 | 188 | 5.0 | 8.0 | 0.00 | 0.00 | 0.29 | 83 | 1015.2 |
| 20260901222147 | 84 | 168 | 5.0 | 6.0 | 0.00 | 0.00 | 0.29 | 81 | 1015.2 |
| 20260901221646 | 84 | 174 | 4.0 | 6.0 | 0.00 | 0.00 | 0.29 | 82 | 1015.2 |
| 20260901221146 | 84 | 179 | 5.0 | 5.0 | 0.00 | 0.00 | 0.29 | 81 | 1015.2 |
| 20260901220648 | 84 | 170 | 4.0 | 4.0 | 0.00 | 0.00 | 0.29 | 79 | 1014.9 |
| 20260901220146 | 84 | 76 | 1.0 | 7.0 | 0.00 | 0.00 | 0.29 | 79 | 1015.2 |
| 20260901215646 | 84 | 175 | 5.0 | 5.0 | 0.00 | 0.00 | 0.29 | 80 | 1014.9 |
| 20260901215147 | 84 | 187 | 3.0 | 4.0 | 0.00 | 0.00 | 0.29 | 81 | 1014.9 |
| 20260901214647 | 84 | 168 | 3.0 | 4.0 | 0.00 | 0.00 | 0.29 | 80 | 1015.2 |
| 20260901214147 | 84 | 175 | 6.0 | 6.0 | 0.00 | 0.00 | 0.29 | 79 | 1015.2 |
| 20260901213647 | 84 | 178 | 3.0 | 4.0 | 0.00 | 0.00 | 0.29 | 80 | 1015.2 |
| 20260901213146 | 84 | 178 | 4.0 | 5.0 | 0.00 | 0.00 | 0.29 | 79 | 1015.2 |
| 20260901212647 | 83 | 177 | 3.0 | 7.0 | 0.00 | 0.00 | 0.29 | 80 | 1015.2 |
| 20260901212146 | 84 | 187 | 2.0 | 3.0 | 0.00 | 0.00 | 0.29 | 78 | 1015.2 |
| 20260901211646 | 84 | 330 | 0.0 | 3.0 | 0.00 | 0.00 | 0.29 | 77 | 1015.2 |
| 20260901211147 | 84 | 215 | 1.0 | 3.0 | 0.00 | 0.00 | 0.29 | 78 | 1015.2 |
| 20260901210647 | 83 | 209 | 2.0 | 4.0 | 0.00 | 0.00 | 0.29 | 79 | 1015.2 |
| 20260901210152 | 84 | 164 | 2.0 | 4.0 | 0.00 | 0.00 | 0.29 | 79 | 1015.2 |
| 20260901205647 | 84 | 166 | 3.0 | 3.0 | 0.00 | 0.00 | 0.29 | 79 | 1015.2 |
| 20260901205146 | 84 | 58 | 3.0 | 3.0 | 0.00 | 0.00 | 0.29 | 79 | 1015.2 |
| 20260901204647 | 83 | 307 | 2.0 | 2.0 | 0.00 | 0.00 | 0.29 | 80 | 1015.2 |
| 20260901204146 | 83 | 266 | 1.0 | 2.0 | 0.00 | 0.00 | 0.29 | 82 | 1015.6 |
| 20260901203647 | 82 | 213 | 1.0 | 2.0 | 0.00 | 0.00 | 0.29 | 83 | 1015.6 |
| 20260901203147 | 82 | 181 | 3.0 | 3.0 | 0.00 | 0.00 | 0.29 | 83 | 1015.9 |
| 20260901202647 | 82 | 224 | 0.0 | 3.0 | 0.00 | 0.00 | 0.29 | 83 | 1015.9 |
| 20260901202146 | 83 | 197 | 2.0 | 3.0 | 0.00 | 0.00 | 0.29 | 82 | 1015.9 |
| 20260901201647 | 82 | 217 | 1.0 | 3.0 | 0.00 | 0.00 | 0.29 | 83 | 1015.9 |
| 20260901201147 | 82 | 226 | 0.0 | 2.0 | 0.00 | 0.00 | 0.29 | 85 | 1016.3 |
| 20260901200646 | 82 | 259 | 1.0 | 3.0 | 0.00 | 0.00 | 0.29 | 85 | 1016.3 |
| 20260901200147 | 82 | 20 | 3.0 | 4.0 | 0.00 | 0.00 | 0.29 | 85 | 1016.6 |
| 20260901195646 | 82 | 288 | 3.0 | 4.0 | 0.00 | 0.00 | 0.29 | 86 | 1016.3 |
| 20260901195146 | 82 | 324 | 3.0 | 4.0 | 0.00 | 0.00 | 0.29 | 87 | 1016.9 |
| 20260901194648 | 82 | 332 | 3.0 | 4.0 | 0.00 | 0.00 | 0.29 | 87 | 1016.9 |
| 20260901194147 | 82 | 347 | 3.0 | 4.0 | 0.00 | 0.00 | 0.29 | 87 | 1016.9 |
| 20260901193646 | 82 | 360 | 3.0 | 3.0 | 0.00 | 0.00 | 0.29 | 86 | 1016.6 |
| 20260901193148 | 82 | 292 | 2.0 | 4.0 | 0.00 | 0.00 | 0.29 | 83 | 1016.6 |
| 20260901192646 | 81 | 227 | 4.0 | 7.0 | 0.00 | 0.00 | 0.29 | 84 | 1016.3 |
| 20260901192147 | 82 | 229 | 4.0 | 7.0 | 0.00 | 0.00 | 0.29 | 87 | 1016.6 |
| 20260901191647 | 81 | 195 | 6.0 | 8.0 | 0.00 | 0.00 | 0.29 | 88 | 1016.3 |
| 20260901191146 | 81 | 205 | 4.0 | 6.0 | 0.00 | 0.00 | 0.29 | 90 | 1016.3 |
| 20260901190647 | 80 | 204 | 5.0 | 6.0 | 0.00 | 0.00 | 0.29 | 90 | 1016.3 |
| 20260901190147 | 80 | 230 | 6.0 | 8.0 | 0.00 | 0.00 | 0.29 | 90 | 1016.3 |
| 20260901185646 | 79 | 215 | 7.0 | 10.0 | 0.02 | 0.00 | 0.29 | 92 | 1016.6 |
| 20260901185147 | 79 | 185 | 5.0 | 14.0 | 0.21 | 0.00 | 0.28 | 92 | 1015.9 |
| 20260901184647 | 80 | 210 | 4.0 | 15.0 | 0.47 | 0.00 | 0.28 | 92 | 1016.3 |
| 20260901184147 | 80 | 176 | 6.0 | 10.0 | 1.32 | 0.00 | 0.25 | 92 | 1016.6 |
| 20260901183646 | 81 | 174 | 0.0 | 19.0 | 1.11 | 0.00 | 0.20 | 89 | 1016.9 |
| 20260901183147 | 86 | 163 | 6.0 | 10.0 | 0.02 | 0.00 | 0.02 | 79 | 1016.3 |
| 20260901182647 | 88 | 224 | 3.0 | 11.0 | 0.00 | 0.00 | 0.02 | 75 | 1016.3 |
| 20260901182146 | 88 | 150 | 7.0 | 12.0 | 0.00 | 0.00 | 0.02 | 72 | 1015.9 |
| 20260901181647 | 88 | 158 | 7.0 | 11.0 | 0.00 | 0.00 | 0.02 | 73 | 1015.9 |
| 20260901181147 | 89 | 170 | 7.0 | 9.0 | 0.00 | 0.00 | 0.02 | 72 | 1016.3 |
| 20260901180646 | 90 | 150 | 3.0 | 5.0 | 0.00 | 0.00 | 0.02 | 67 | 1016.3 |
| 20260901180146 | 89 | 169 | 4.0 | 8.0 | 0.00 | 0.00 | 0.02 | 69 | 1016.3 |
| 20260901175646 | 89 | 129 | 7.0 | 7.0 | 0.00 | 0.00 | 0.02 | 69 | 1016.6 |
| 20260901175146 | 90 | 171 | 2.0 | 7.0 | 0.00 | 0.00 | 0.02 | 68 | 1016.3 |
| 20260901174647 | 90 | 282 | 1.0 | 7.0 | 0.00 | 0.00 | 0.02 | 69 | 1016.3 |
| 20260901174147 | 89 | 43 | 3.0 | 7.0 | 0.00 | 0.00 | 0.02 | 74 | 1016.3 |
| 20260901173647 | 87 | 214 | 0.0 | 4.0 | 0.00 | 0.00 | 0.02 | 77 | 1016.3 |
| 20260901173147 | 87 | 180 | 2.0 | 6.0 | 0.00 | 0.00 | 0.02 | 78 | 1016.3 |
| 20260901172647 | 86 | 219 | 2.0 | 5.0 | 0.00 | 0.00 | 0.02 | 78 | 1016.3 |
| 20260901172146 | 86 | 223 | 1.0 | 3.0 | 0.00 | 0.00 | 0.02 | 78 | 1016.6 |
| 20260901171647 | 85 | 229 | 2.0 | 3.0 | 0.00 | 0.00 | 0.02 | 80 | 1016.6 |
| 20260901171147 | 84 | 304 | 2.0 | 4.0 | 0.02 | 0.00 | 0.02 | 82 | 1016.6 |
| 20260901170647 | 83 | 235 | 3.0 | 4.0 | 0.02 | 0.00 | 0.02 | 83 | 1016.6 |
| 20260901170146 | 83 | 221 | 3.0 | 6.0 | 0.02 | 0.00 | 0.02 | 84 | 1017.3 |
| 20260901165646 | 84 | 216 | 9.0 | 11.0 | 0.09 | 0.00 | 0.02 | 83 | 1016.9 |
| 20260901165146 | 87 | 204 | 9.0 | 14.0 | 0.07 | 0.00 | 0.01 | 77 | 1016.9 |
| 20260901164646 | 89 | 164 | 3.0 | 10.0 | 0.00 | 0.00 | 0.00 | 67 | 1016.9 |
| 20260901164146 | 89 | 5 | 1.0 | 7.0 | 0.00 | 0.00 | 0.00 | 68 | 1016.9 |
| 20260901163647 | 89 | 142 | 3.0 | 6.0 | 0.00 | 0.00 | 0.00 | 68 | 1016.9 |
| 20260901163146 | 90 | 71 | 5.0 | 7.0 | 0.00 | 0.00 | 0.00 | 68 | 1016.9 |
| 20260901162646 | 90 | 39 | 9.0 | 10.0 | 0.00 | 0.00 | 0.00 | 67 | 1016.9 |
| 20260901162146 | 89 | 51 | 5.0 | 7.0 | 0.00 | 0.00 | 0.00 | 69 | 1016.9 |
| 20260901161649 | 89 | 82 | 3.0 | 8.0 | 0.00 | 0.00 | 0.00 | 69 | 1016.9 |
| 20260901161146 | 89 | 235 | 0.0 | 9.0 | 0.00 | 0.00 | 0.00 | 69 | 1016.6 |
| 20260901160647 | 89 | 82 | 3.0 | 4.0 | 0.00 | 0.00 | 0.00 | 69 | 1016.9 |
| 20260901155647 | 90 | 37 | 1.0 | 5.0 | 0.00 | 0.00 | 0.00 | 68 | 1016.6 |
| 20260901155146 | 89 | 84 | 4.0 | 11.0 | 0.00 | 0.00 | 0.00 | 69 | 1016.6 |
| 20260901154646 | 89 | 149 | 8.0 | 9.0 | 0.00 | 0.00 | 0.00 | 69 | 1016.6 |
| 20260901154146 | 90 | 144 | 6.0 | 6.0 | 0.00 | 0.00 | 0.00 | 69 | 1016.6 |
| 20260901153647 | 89 | 129 | 3.0 | 6.0 | 0.00 | 0.00 | 0.00 | 71 | 1016.9 |